DW6386 Weather Reports


Display with metric or nautical units.
time (UTC)temp
F
wind
direction
speed
MPH
gust
MPH
rain 1hr
in
rain 24hr
in
rain mn
in
humidity
%
barometer
mb
20260503184530 64 293 4.0 8.0 0.00 0.00 0.00 41 1018.7
20260503183035 64 49 0.0 6.0 0.00 0.00 0.00 44 1018.9
20260503181523 63 46 0.0 8.0 0.00 0.00 0.00 46 1019.1
20260503180029 63 39 4.0 8.0 0.00 0.00 0.00 48 1019.3
20260503174524 63 259 1.0 5.0 0.00 0.00 0.00 45 1019.7
20260503173019 61 66 1.0 6.0 0.00 0.00 0.00 50 1019.9
20260503171519 61 107 1.0 6.0 0.00 0.00 0.00 48 1020.0
20260503090107 41 153 0.0 0.0 0.00 0.00 0.00 91 1019.0
20260503081559 43 153 0.0 0.0 0.00 0.00 0.00 90 1018.6
20260503071606 43 207 0.0 3.0 0.00 0.00 0.00 89 1017.9
20260503054553 44 105 0.0 0.0 0.00 0.00 0.00 89 1017.6
20260503053040 44 162 0.0 0.0 0.00 0.00 0.00 88 1017.5
20260503051547 44 181 0.0 0.0 0.00 0.00 0.00 87 1017.5
20260503050036 44 181 0.0 0.0 0.00 0.00 0.00 87 1017.3
20260503044534 45 181 0.0 0.0 0.00 0.00 0.00 85 1017.4
20260503043030 45 207 0.0 0.0 0.00 0.00 0.00 84 1017.3
20260503041532 46 99 0.0 0.0 0.00 0.00 0.00 83 1017.3
20260503040025 47 113 0.0 0.0 0.00 0.00 0.00 82 1017.3
20260503034524 47 121 0.0 0.0 0.00 0.00 0.00 80 1017.2
20260503033021 48 163 0.0 0.0 0.00 0.00 0.00 78 1017.0
20260503031523 49 172 0.0 2.0 0.00 0.00 0.00 76 1016.9
20260503030026 50 105 0.0 5.0 0.00 0.00 0.00 75 1016.9
20260503024520 50 134 0.0 1.0 0.00 0.00 0.00 74 1016.8
20260503023020 51 77 0.0 0.0 0.00 0.00 0.00 74 1016.9
20260503021519 51 120 0.0 8.0 0.00 0.00 0.00 71 1016.9
20260503020017 52 94 0.0 3.0 0.00 0.00 0.00 69 1016.8
20260503014514 53 134 0.0 5.0 0.00 0.00 0.00 64 1016.4
20260503013025 54 282 0.0 4.0 0.00 0.00 0.00 63 1016.0
20260503011509 53 128 0.0 4.0 0.00 0.00 0.00 64 1015.5
20260503010007 53 141 0.0 0.0 0.00 0.00 0.00 65 1015.2
20260503004506 53 119 0.0 0.0 0.00 0.00 0.00 62 1014.9
20260503003008 53 119 0.0 0.0 0.00 0.00 0.00 60 1014.7
20260503001505 54 119 0.0 0.0 0.00 0.00 0.00 58 1014.6
20260503000004 55 119 0.0 0.0 0.00 0.00 0.00 56 1014.3
20260502234504 56 148 0.0 0.0 0.00 0.00 0.00 54 1014.1
20260502233004 58 125 0.0 0.0 0.00 0.00 0.00 52 1013.9
20260502231503 58 182 0.0 3.0 0.00 0.00 0.00 50 1013.9
20260502230005 59 167 0.0 6.0 0.00 0.00 0.00 48 1013.9
20260502224502 60 160 0.0 5.0 0.00 0.00 0.00 48 1013.7
20260502223004 61 129 0.0 4.0 0.00 0.00 0.00 46 1013.9
20260502221501 61 126 0.0 6.0 0.00 0.00 0.00 44 1013.9
20260502220003 61 309 1.0 6.0 0.00 0.00 0.00 47 1013.5
20260502214559 61 134 0.0 4.0 0.00 0.00 0.00 46 1013.5
20260502213105 62 129 0.0 5.0 0.00 0.00 0.00 44 1013.3
20260502211558 63 124 0.0 4.0 0.00 0.00 0.00 44 1013.3
20260502210056 63 114 0.0 7.0 0.00 0.00 0.00 40 1013.3
20260502204600 64 140 0.0 5.0 0.00 0.00 0.00 46 1013.3
20260502203118 63 342 0.0 4.0 0.00 0.00 0.00 44 1013.3
20260502201604 63 98 0.0 6.0 0.00 0.00 0.00 42 1013.3
20260502200059 63 136 0.0 6.0 0.00 0.00 0.00 43 1013.5
20260502194555 65 151 0.0 1.0 0.00 0.00 0.00 41 1013.5
20260502193101 63 46 0.0 6.0 0.00 0.00 0.00 40 1013.4
20260502191550 63 264 0.0 2.0 0.00 0.00 0.00 41 1013.5
20260502190049 63 119 0.0 3.0 0.00 0.00 0.00 41 1013.6